Orbital Elements at Epoch 2459000.5 (2020-May-31.0) TDB
Reference: JPL 13 (heliocentric ecliptic J2000)
Element | Value | Uncertainty (1-sigma) | Units |
e | .07613020075722481 | 5.5034e-08 | |
a | 3.170888535202512 | 3.0605e-08 | au |
q | 2.929488154438762 | 1.8314e-07 | au |
i | 2.151021467661471 | 5.273e-06 | deg |
node | 148.0837334989609 | 0.00015281 | deg |
peri | 253.2917490271835 | 0.0001568 | deg |
M | 335.4420004273332 | 3.3386e-05 | deg |
tp | 2459141.189075948914 (2020-Oct-18.68907595) | 0.00019092 | TDB |
period | 2062.385708239068 5.65 | 2.9859e-05 8.175e-08 | d yr |
n | .1745551273759454 | 2.5272e-09 | deg/d |
Q | 3.412288915966262 | 3.2935e-08 | au |
|
| | Orbit Determination Parameters
Additional Information
|